Year,Month,Day,Hour,Minute,Value (Times are PST for temperature in C)
2011,03,23,00,00,5.10
2011,03,23,00,01,5.10
2011,03,23,00,02,5.10
2011,03,23,00,03,5.00
2011,03,23,00,04,4.90
2011,03,23,00,05,4.90
2011,03,23,00,06,4.90
2011,03,23,00,07,4.90
2011,03,23,00,08,4.90
2011,03,23,00,09,4.80
2011,03,23,00,10,4.80
2011,03,23,00,11,4.80
2011,03,23,00,12,4.70
2011,03,23,00,13,4.70
2011,03,23,00,14,4.60
2011,03,23,00,15,4.60
2011,03,23,00,16,4.60
2011,03,23,00,17,4.60
2011,03,23,00,18,4.60
2011,03,23,00,19,4.60
2011,03,23,00,20,4.50
2011,03,23,00,21,4.50
2011,03,23,00,22,4.50
2011,03,23,00,23,4.50
2011,03,23,00,24,4.40
2011,03,23,00,25,4.40
2011,03,23,00,26,4.40
2011,03,23,00,27,4.30
2011,03,23,00,28,4.30
2011,03,23,00,29,4.20
2011,03,23,00,30,4.20
2011,03,23,00,31,4.20
2011,03,23,00,32,4.20
2011,03,23,00,33,4.20
2011,03,23,00,34,4.10
2011,03,23,00,35,4.10
2011,03,23,00,36,4.10
2011,03,23,00,37,4.10
2011,03,23,00,38,4.00
2011,03,23,00,39,4.00
2011,03,23,00,40,4.00
2011,03,23,00,41,4.00
2011,03,23,00,42,3.90
2011,03,23,00,43,3.90
2011,03,23,00,44,3.90
2011,03,23,00,45,3.80
2011,03,23,00,46,3.80
2011,03,23,00,47,3.80
2011,03,23,00,48,3.80
2011,03,23,00,49,3.80
2011,03,23,00,50,3.80
2011,03,23,00,51,3.80
2011,03,23,00,52,3.70
2011,03,23,00,53,3.70
2011,03,23,00,54,3.70
2011,03,23,00,55,3.70
2011,03,23,00,56,3.70
2011,03,23,00,57,3.70
2011,03,23,00,58,3.70
2011,03,23,00,59,3.70
2011,03,23,01,00,3.70
2011,03,23,01,01,3.70
2011,03,23,01,02,3.70
2011,03,23,01,03,3.70
2011,03,23,01,04,3.70
2011,03,23,01,05,3.70
2011,03,23,01,06,3.80
2011,03,23,01,07,3.80
2011,03,23,01,08,3.90
2011,03,23,01,09,3.90
2011,03,23,01,10,4.00
2011,03,23,01,11,4.00
2011,03,23,01,12,4.10
2011,03,23,01,13,4.10
2011,03,23,01,14,4.20
2011,03,23,01,15,4.20
2011,03,23,01,16,4.20
2011,03,23,01,17,4.20
2011,03,23,01,18,4.20
2011,03,23,01,19,4.20
2011,03,23,01,20,4.20
2011,03,23,01,21,4.20
2011,03,23,01,22,4.20
2011,03,23,01,23,4.20
2011,03,23,01,24,4.10
2011,03,23,01,25,4.10
2011,03,23,01,26,4.00
2011,03,23,01,27,4.00
2011,03,23,01,28,4.00
2011,03,23,01,29,4.00
2011,03,23,01,30,3.90
2011,03,23,01,31,3.90
2011,03,23,01,32,3.90
2011,03,23,01,33,3.80
2011,03,23,01,34,3.80
2011,03,23,01,35,3.80
2011,03,23,01,36,3.80
2011,03,23,01,37,3.80
2011,03,23,01,38,3.70
2011,03,23,01,39,3.70
2011,03,23,01,40,3.70
2011,03,23,01,41,3.60
2011,03,23,01,42,3.60
2011,03,23,01,43,3.60
2011,03,23,01,44,3.60
2011,03,23,01,45,3.60
2011,03,23,01,46,3.60
2011,03,23,01,47,3.60
2011,03,23,01,48,3.50
2011,03,23,01,49,3.50
2011,03,23,01,50,3.50
2011,03,23,01,51,3.50
2011,03,23,01,52,3.50
2011,03,23,01,53,3.50
2011,03,23,01,54,3.60
2011,03,23,01,55,3.60
2011,03,23,01,56,3.60
2011,03,23,01,57,3.60
2011,03,23,01,58,3.70
2011,03,23,01,59,3.70
2011,03,23,02,00,3.80
2011,03,23,02,01,3.80
2011,03,23,02,02,3.80
2011,03,23,02,03,3.80
2011,03,23,02,04,3.80
2011,03,23,02,05,3.80
2011,03,23,02,06,3.80
2011,03,23,02,07,3.80
2011,03,23,02,08,3.80
2011,03,23,02,09,3.80
2011,03,23,02,10,3.80
2011,03,23,02,11,3.90
2011,03,23,02,12,3.90
2011,03,23,02,13,4.00
2011,03,23,02,14,4.00
2011,03,23,02,15,4.00
2011,03,23,02,16,4.00
2011,03,23,02,17,4.10
2011,03,23,02,18,4.10
2011,03,23,02,19,4.10
2011,03,23,02,20,4.20
2011,03,23,02,21,4.20
2011,03,23,02,22,4.20
2011,03,23,02,23,4.20
2011,03,23,02,24,4.20
2011,03,23,02,25,4.30
2011,03,23,02,26,4.30
2011,03,23,02,27,4.30
2011,03,23,02,28,4.30
2011,03,23,02,29,4.30
2011,03,23,02,30,4.30
2011,03,23,02,31,4.30
2011,03,23,02,32,4.30
2011,03,23,02,33,4.30
2011,03,23,02,34,4.30
2011,03,23,02,35,4.30
2011,03,23,02,36,4.30
2011,03,23,02,37,4.30
2011,03,23,02,38,4.30
2011,03,23,02,39,4.30
2011,03,23,02,40,4.30
2011,03,23,02,41,4.30
2011,03,23,02,42,4.30
2011,03,23,02,43,4.30
2011,03,23,02,44,4.30
2011,03,23,02,45,4.30
2011,03,23,02,46,4.30
2011,03,23,02,47,4.30
2011,03,23,02,48,4.30
2011,03,23,02,49,4.30
2011,03,23,02,50,4.30
2011,03,23,02,51,4.20
2011,03,23,02,52,4.20
2011,03,23,02,53,4.20
2011,03,23,02,54,4.20
2011,03,23,02,55,4.20
2011,03,23,02,56,4.20
2011,03,23,02,57,4.20
2011,03,23,02,58,4.20
2011,03,23,02,59,4.20
2011,03,23,03,00,4.20
2011,03,23,03,01,4.20
2011,03,23,03,02,4.20
2011,03,23,03,03,4.20
2011,03,23,03,04,4.20
2011,03,23,03,05,4.20
2011,03,23,03,06,4.20
2011,03,23,03,07,4.20
2011,03,23,03,08,4.20
2011,03,23,03,09,4.30
2011,03,23,03,10,4.40
2011,03,23,03,11,4.40
2011,03,23,03,12,4.40
2011,03,23,03,13,4.50
2011,03,23,03,14,4.50
2011,03,23,03,15,4.50
2011,03,23,03,16,4.50
2011,03,23,03,17,4.60
2011,03,23,03,18,4.60
2011,03,23,03,19,4.60
2011,03,23,03,20,4.60
2011,03,23,03,21,4.60
2011,03,23,03,22,4.60
2011,03,23,03,23,4.60
2011,03,23,03,24,4.60
2011,03,23,03,25,4.60
2011,03,23,03,26,4.60
2011,03,23,03,27,4.50
2011,03,23,03,28,4.50
2011,03,23,03,29,4.50
2011,03,23,03,30,4.50
2011,03,23,03,31,4.50
2011,03,23,03,32,4.50
2011,03,23,03,33,4.50
2011,03,23,03,34,4.50
2011,03,23,03,35,4.50
2011,03,23,03,36,4.50
2011,03,23,03,37,4.50
2011,03,23,03,38,4.60
2011,03,23,03,39,4.60
2011,03,23,03,40,4.60
2011,03,23,03,41,4.60
2011,03,23,03,42,4.60
2011,03,23,03,43,4.60
2011,03,23,03,44,4.60
2011,03,23,03,45,4.60
2011,03,23,03,46,4.60
2011,03,23,03,47,4.60
2011,03,23,03,48,4.60
2011,03,23,03,49,4.60
2011,03,23,03,50,4.50
2011,03,23,03,51,4.50
2011,03,23,03,52,4.50
2011,03,23,03,53,4.40
2011,03,23,03,54,4.40
2011,03,23,03,55,4.30
2011,03,23,03,56,4.30
2011,03,23,03,57,4.20
2011,03,23,03,58,4.20
2011,03,23,03,59,4.20
2011,03,23,04,00,4.20
2011,03,23,04,01,4.30
2011,03,23,04,02,4.30
2011,03,23,04,03,4.40
2011,03,23,04,04,4.40
2011,03,23,04,05,4.40
2011,03,23,04,06,4.50
2011,03,23,04,07,4.60
2011,03,23,04,08,4.60
2011,03,23,04,09,4.60
2011,03,23,04,10,4.60
2011,03,23,04,11,4.60
2011,03,23,04,12,4.60
2011,03,23,04,13,4.60
2011,03,23,04,14,4.60
2011,03,23,04,15,4.60
2011,03,23,04,16,4.60
2011,03,23,04,17,4.60
2011,03,23,04,18,4.60
2011,03,23,04,19,4.60
2011,03,23,04,20,4.60
2011,03,23,04,21,4.60
2011,03,23,04,22,4.60
2011,03,23,04,23,4.60
2011,03,23,04,24,4.60
2011,03,23,04,25,4.60
2011,03,23,04,26,4.60
2011,03,23,04,27,4.60
2011,03,23,04,28,4.60
2011,03,23,04,29,4.60
2011,03,23,04,30,4.60
2011,03,23,04,31,4.60
2011,03,23,04,32,4.60
2011,03,23,04,33,4.60
2011,03,23,04,34,4.60
2011,03,23,04,35,4.60
2011,03,23,04,36,4.70
2011,03,23,04,37,4.70
2011,03,23,04,38,4.70
2011,03,23,04,39,4.80
2011,03,23,04,40,4.80
2011,03,23,04,41,4.90
2011,03,23,04,42,5.00
2011,03,23,04,43,5.10
2011,03,23,04,44,5.10
2011,03,23,04,45,5.20
2011,03,23,04,46,5.30
2011,03,23,04,47,5.30
2011,03,23,04,48,5.40
2011,03,23,04,49,5.40
2011,03,23,04,50,5.50
2011,03,23,04,51,5.60
2011,03,23,04,52,5.60
2011,03,23,04,53,5.70
2011,03,23,04,54,5.70
2011,03,23,04,55,5.70
2011,03,23,04,56,5.70
2011,03,23,04,57,5.70
2011,03,23,04,58,5.70
2011,03,23,04,59,5.70
2011,03,23,05,00,5.60
2011,03,23,05,01,5.60
2011,03,23,05,02,5.50
2011,03,23,05,03,5.50
2011,03,23,05,04,5.50
2011,03,23,05,05,5.40
2011,03,23,05,06,5.30
2011,03,23,05,07,5.30
2011,03,23,05,08,5.30
2011,03,23,05,09,5.30
2011,03,23,05,10,5.30
2011,03,23,05,11,5.30
2011,03,23,05,12,5.30
2011,03,23,05,13,5.30
2011,03,23,05,14,5.20
2011,03,23,05,15,5.20
2011,03,23,05,16,5.20
2011,03,23,05,17,5.20
2011,03,23,05,18,5.20
2011,03,23,05,19,5.20
2011,03,23,05,20,5.10
2011,03,23,05,21,5.10
2011,03,23,05,22,5.10
2011,03,23,05,23,5.10
2011,03,23,05,24,5.10
2011,03,23,05,25,5.10
2011,03,23,05,26,5.10
2011,03,23,05,27,5.10
2011,03,23,05,28,5.10
2011,03,23,05,29,5.10
2011,03,23,05,30,5.10
2011,03,23,05,31,5.10
2011,03,23,05,32,5.10
2011,03,23,05,33,5.20
2011,03,23,05,34,5.20
2011,03,23,05,35,5.20
2011,03,23,05,36,5.20
2011,03,23,05,37,5.20
2011,03,23,05,38,5.20
2011,03,23,05,39,5.30
2011,03,23,05,40,5.30
2011,03,23,05,41,5.30
2011,03,23,05,42,5.30
2011,03,23,05,43,5.30
2011,03,23,05,44,5.30
2011,03,23,05,45,5.30
2011,03,23,05,46,5.30
2011,03,23,05,47,5.30
2011,03,23,05,48,5.30
2011,03,23,05,49,5.30
2011,03,23,05,50,5.30
2011,03,23,05,51,5.30
2011,03,23,05,52,5.30
2011,03,23,05,53,5.20
2011,03,23,05,54,5.20
2011,03,23,05,55,5.20
2011,03,23,05,56,5.20
2011,03,23,05,57,5.20
2011,03,23,05,58,5.10
2011,03,23,05,59,5.10
2011,03,23,06,00,5.10
2011,03,23,06,01,5.10
2011,03,23,06,02,5.10
2011,03,23,06,03,5.10
2011,03,23,06,04,5.10
2011,03,23,06,05,5.10
2011,03,23,06,06,5.10
2011,03,23,06,07,5.10
2011,03,23,06,08,5.10
2011,03,23,06,09,5.10
2011,03,23,06,10,5.10
2011,03,23,06,11,5.10
2011,03,23,06,12,5.10
2011,03,23,06,13,5.10
2011,03,23,06,14,5.10
2011,03,23,06,15,5.10
2011,03,23,06,16,5.10
2011,03,23,06,17,5.10
2011,03,23,06,18,5.10
2011,03,23,06,19,5.10
2011,03,23,06,20,5.10
2011,03,23,06,21,5.10
2011,03,23,06,22,5.10
2011,03,23,06,23,5.10
2011,03,23,06,24,5.10
2011,03,23,06,25,5.10
2011,03,23,06,26,5.10
2011,03,23,06,27,5.10
2011,03,23,06,28,5.10
2011,03,23,06,29,5.10
2011,03,23,06,30,5.10
2011,03,23,06,31,5.20
2011,03,23,06,32,5.20
2011,03,23,06,33,5.30
2011,03,23,06,34,5.30
2011,03,23,06,35,5.30
2011,03,23,06,36,5.30
2011,03,23,06,37,5.30
2011,03,23,06,38,5.30
2011,03,23,06,39,5.30
2011,03,23,06,40,5.30
2011,03,23,06,41,5.40
2011,03,23,06,42,5.40
2011,03,23,06,43,5.40
2011,03,23,06,44,5.50
2011,03,23,06,45,5.50
2011,03,23,06,46,5.50
2011,03,23,06,47,5.50
2011,03,23,06,48,5.60
2011,03,23,06,49,5.60
2011,03,23,06,50,5.60
2011,03,23,06,51,5.60
2011,03,23,06,52,5.60
2011,03,23,06,53,5.70
2011,03,23,06,54,5.70
2011,03,23,06,55,5.70
2011,03,23,06,56,5.70
2011,03,23,06,57,5.70
2011,03,23,06,58,5.60
2011,03,23,06,59,5.60
2011,03,23,07,00,5.60
2011,03,23,07,01,5.60
2011,03,23,07,02,5.60
2011,03,23,07,03,5.60
2011,03,23,07,04,5.60
2011,03,23,07,05,5.60
2011,03,23,07,06,5.50
2011,03,23,07,07,5.50
2011,03,23,07,08,5.50
2011,03,23,07,09,5.50
2011,03,23,07,10,5.50
2011,03,23,07,11,5.50
2011,03,23,07,12,5.40
2011,03,23,07,13,5.40
2011,03,23,07,14,5.40
2011,03,23,07,15,5.30
2011,03,23,07,16,5.30
2011,03,23,07,17,5.30
2011,03,23,07,18,5.30
2011,03,23,07,19,5.30
2011,03,23,07,20,5.30
2011,03,23,07,21,5.20
2011,03,23,07,22,5.20
2011,03,23,07,23,5.20
2011,03,23,07,24,5.20
2011,03,23,07,25,5.20
2011,03,23,07,26,5.30
2011,03,23,07,27,5.30
2011,03,23,07,28,5.30
2011,03,23,07,29,5.30
2011,03,23,07,30,5.30
2011,03,23,07,31,5.30
2011,03,23,07,32,5.30
2011,03,23,07,33,5.30
2011,03,23,07,34,5.30
2011,03,23,07,35,5.30
2011,03,23,07,36,5.30
2011,03,23,07,37,5.30
2011,03,23,07,38,5.40
2011,03,23,07,39,5.40
2011,03,23,07,40,5.40
2011,03,23,07,41,5.40
2011,03,23,07,42,5.40
2011,03,23,07,43,5.40
2011,03,23,07,44,5.40
2011,03,23,07,45,5.40
2011,03,23,07,46,5.40
2011,03,23,07,47,5.50
2011,03,23,07,48,5.50
2011,03,23,07,49,5.50
2011,03,23,07,50,5.60
2011,03,23,07,51,5.60
2011,03,23,07,52,5.70
2011,03,23,07,53,5.70
2011,03,23,07,54,5.70
2011,03,23,07,55,5.70
2011,03,23,07,56,5.70
2011,03,23,07,57,5.70
2011,03,23,07,58,5.70
2011,03,23,07,59,5.70
2011,03,23,08,00,5.70
2011,03,23,08,01,5.80
2011,03,23,08,02,5.80
2011,03,23,08,03,5.80
2011,03,23,08,04,5.80
2011,03,23,08,05,5.90
2011,03,23,08,06,5.90
2011,03,23,08,07,5.90
2011,03,23,08,08,5.80
2011,03,23,08,09,5.80
2011,03,23,08,10,5.80
2011,03,23,08,11,5.80
2011,03,23,08,12,5.80
2011,03,23,08,13,5.70
2011,03,23,08,14,5.70
2011,03,23,08,15,5.70
2011,03,23,08,16,5.70
2011,03,23,08,17,5.70
2011,03,23,08,18,5.70
2011,03,23,08,19,5.70
2011,03,23,08,20,5.70
2011,03,23,08,21,5.60
2011,03,23,08,22,5.60
2011,03,23,08,23,5.60
2011,03,23,08,24,5.60
2011,03,23,08,25,5.60
2011,03,23,08,26,5.60
2011,03,23,08,27,5.60
2011,03,23,08,28,5.60
2011,03,23,08,29,5.60
2011,03,23,08,30,5.50
2011,03,23,08,31,5.50
2011,03,23,08,32,5.50
2011,03,23,08,33,5.50
2011,03,23,08,34,5.50
2011,03,23,08,35,5.40
2011,03,23,08,36,5.40
2011,03,23,08,37,5.40
2011,03,23,08,38,5.40
2011,03,23,08,39,5.50
2011,03,23,08,40,5.50
2011,03,23,08,41,5.50
2011,03,23,08,42,5.50
2011,03,23,08,43,5.50
2011,03,23,08,44,5.50
2011,03,23,08,45,5.50
2011,03,23,08,46,5.50
2011,03,23,08,47,5.50
2011,03,23,08,48,5.50
2011,03,23,08,49,5.50
2011,03,23,08,50,5.50
2011,03,23,08,51,5.40
2011,03,23,08,52,5.40
2011,03,23,08,53,5.40
2011,03,23,08,54,5.40
2011,03,23,08,55,5.40
2011,03,23,08,56,5.40
2011,03,23,08,57,5.40
2011,03,23,08,58,5.40
2011,03,23,08,59,5.40
2011,03,23,09,00,5.40
2011,03,23,09,01,5.40
2011,03,23,09,02,5.40
2011,03,23,09,03,5.40
2011,03,23,09,04,5.40
2011,03,23,09,05,5.40
2011,03,23,09,06,5.40
2011,03,23,09,07,5.40
2011,03,23,09,08,5.50
2011,03,23,09,09,5.50
2011,03,23,09,10,5.60
2011,03,23,09,11,5.70
2011,03,23,09,12,5.70
2011,03,23,09,13,5.80
2011,03,23,09,14,5.90
2011,03,23,09,15,5.90
2011,03,23,09,16,6.00
2011,03,23,09,17,6.20
2011,03,23,09,18,6.20
2011,03,23,09,19,6.20
2011,03,23,09,20,6.30
2011,03,23,09,21,6.30
2011,03,23,09,22,6.30
2011,03,23,09,23,6.30
2011,03,23,09,24,6.30
2011,03,23,09,25,6.30
2011,03,23,09,26,6.30
2011,03,23,09,27,6.30
2011,03,23,09,28,6.40
2011,03,23,09,29,6.40
2011,03,23,09,30,6.40
2011,03,23,09,31,6.40
2011,03,23,09,32,6.60
2011,03,23,09,33,6.70
2011,03,23,09,34,6.80
2011,03,23,09,35,7.00
2011,03,23,09,36,7.10
2011,03,23,09,37,7.20
2011,03,23,09,38,7.30
2011,03,23,09,39,7.40
2011,03,23,09,40,7.50
2011,03,23,09,41,7.60
2011,03,23,09,42,7.70
2011,03,23,09,43,7.80
2011,03,23,09,44,7.80
2011,03,23,09,45,7.90
2011,03,23,09,46,7.90
2011,03,23,09,47,8.00
2011,03,23,09,48,8.00
2011,03,23,09,49,8.00
2011,03,23,09,50,8.10
2011,03,23,09,51,8.10
2011,03,23,09,52,8.20
2011,03,23,09,53,8.20
2011,03,23,09,54,8.20
2011,03,23,09,55,8.20
2011,03,23,09,56,8.20
2011,03,23,09,57,8.20
2011,03,23,09,58,8.10
2011,03,23,09,59,8.10
2011,03,23,10,00,8.00
2011,03,23,10,01,8.00
2011,03,23,10,02,8.00
2011,03,23,10,03,8.10
2011,03,23,10,04,8.10
2011,03,23,10,05,8.20
2011,03,23,10,06,8.20
2011,03,23,10,07,8.20
2011,03,23,10,08,8.20
2011,03,23,10,09,8.30
2011,03,23,10,10,8.30
2011,03,23,10,11,8.40
2011,03,23,10,12,8.40
2011,03,23,10,13,8.40
2011,03,23,10,14,8.50
2011,03,23,10,15,8.50
2011,03,23,10,16,8.60
2011,03,23,10,17,8.60
2011,03,23,10,18,8.60
2011,03,23,10,19,8.50
2011,03,23,10,20,8.50
2011,03,23,10,21,8.50
2011,03,23,10,22,8.50
2011,03,23,10,23,8.60
2011,03,23,10,24,8.70
2011,03,23,10,25,8.70
2011,03,23,10,26,8.70
2011,03,23,10,27,8.80
2011,03,23,10,28,8.80
2011,03,23,10,29,8.90
2011,03,23,10,30,8.90
2011,03,23,10,31,9.00
2011,03,23,10,32,9.00
2011,03,23,10,33,9.10
2011,03,23,10,34,9.10
2011,03,23,10,35,9.10
2011,03,23,10,36,9.10
2011,03,23,10,37,9.10
2011,03,23,10,38,9.00
2011,03,23,10,39,9.00
2011,03,23,10,40,9.00
2011,03,23,10,41,9.10
2011,03,23,10,42,9.10
2011,03,23,10,43,9.10
2011,03,23,10,44,9.10
2011,03,23,10,45,9.10
2011,03,23,10,46,9.20
2011,03,23,10,47,9.20
2011,03,23,10,48,9.20
2011,03,23,10,49,9.20
2011,03,23,10,50,9.20
2011,03,23,10,51,9.30
2011,03,23,10,52,9.30
2011,03,23,10,53,9.30
2011,03,23,10,54,9.30
2011,03,23,10,55,9.40
2011,03,23,10,56,9.40
2011,03,23,10,57,9.40
2011,03,23,10,58,9.30
2011,03,23,10,59,9.30
2011,03,23,11,00,9.30
2011,03,23,11,01,9.30
2011,03,23,11,02,9.30
2011,03,23,11,03,9.30
2011,03,23,11,04,9.30
2011,03,23,11,05,9.30
2011,03,23,11,06,9.30
2011,03,23,11,07,9.40
2011,03,23,11,08,9.40
2011,03,23,11,09,9.40
2011,03,23,11,10,9.50
2011,03,23,11,11,9.60
2011,03,23,11,12,9.70
2011,03,23,11,13,9.70
2011,03,23,11,14,9.70
2011,03,23,11,15,9.60
2011,03,23,11,16,9.60
2011,03,23,11,17,9.60
2011,03,23,11,18,9.60
2011,03,23,11,19,9.50
2011,03,23,11,20,9.50
2011,03,23,11,21,9.60
2011,03,23,11,22,9.70
2011,03,23,11,23,9.70
2011,03,23,11,24,9.70
2011,03,23,11,25,9.70
2011,03,23,11,26,9.70
2011,03,23,11,27,9.70
2011,03,23,11,28,9.70
2011,03,23,11,29,9.70
2011,03,23,11,30,9.70
2011,03,23,11,31,9.70
2011,03,23,11,32,9.60
2011,03,23,11,33,9.60
2011,03,23,11,34,9.60
2011,03,23,11,35,9.60
2011,03,23,11,36,9.50
2011,03,23,11,37,9.50
2011,03,23,11,38,9.50
2011,03,23,11,39,9.60
2011,03,23,11,40,9.70
2011,03,23,11,41,9.60
2011,03,23,11,42,9.60
2011,03,23,11,43,9.60
2011,03,23,11,44,9.60
2011,03,23,11,45,9.60
2011,03,23,11,46,9.50
2011,03,23,11,47,9.50
2011,03,23,11,48,9.50
2011,03,23,11,49,9.50
2011,03,23,11,50,9.50
2011,03,23,11,51,9.60
2011,03,23,11,52,9.70
2011,03,23,11,53,9.70
2011,03,23,11,54,9.70
2011,03,23,11,55,9.80
2011,03,23,11,56,9.80
2011,03,23,11,57,9.80
2011,03,23,11,58,9.90
2011,03,23,11,59,9.90
2011,03,23,12,00,9.90
2011,03,23,12,01,9.80
2011,03,23,12,02,9.70
2011,03,23,12,03,9.70
2011,03,23,12,04,9.70
2011,03,23,12,05,9.60
2011,03,23,12,06,9.60
2011,03,23,12,07,9.70
2011,03,23,12,08,9.70
2011,03,23,12,09,9.70
2011,03,23,12,10,9.70
2011,03,23,12,11,9.80
2011,03,23,12,12,9.90
2011,03,23,12,13,9.90
2011,03,23,12,14,9.90
2011,03,23,12,15,9.90
2011,03,23,12,16,9.90
2011,03,23,12,17,9.90
2011,03,23,12,18,9.80
2011,03,23,12,19,9.80
2011,03,23,12,20,9.80
2011,03,23,12,21,9.80
2011,03,23,12,22,9.80
2011,03,23,12,23,9.90
2011,03,23,12,24,9.90
2011,03,23,12,25,9.90
2011,03,23,12,26,9.90
2011,03,23,12,27,10.00
2011,03,23,12,28,10.10
2011,03,23,12,29,10.10
2011,03,23,12,30,10.10
2011,03,23,12,31,10.10
2011,03,23,12,32,9.90
2011,03,23,12,33,10.00
2011,03,23,12,34,10.10
2011,03,23,12,35,10.10
2011,03,23,12,36,10.20
2011,03,23,12,37,10.20
2011,03,23,12,38,10.40
2011,03,23,12,39,10.40
2011,03,23,12,40,10.50
2011,03,23,12,41,10.60
2011,03,23,12,42,10.60
2011,03,23,12,43,10.40
2011,03,23,12,44,10.40
2011,03,23,12,45,10.40
2011,03,23,12,46,10.40
2011,03,23,12,47,10.40
2011,03,23,12,48,10.40
2011,03,23,12,49,10.40
2011,03,23,12,50,10.40
2011,03,23,12,51,10.40
2011,03,23,12,52,10.40
2011,03,23,12,53,10.40
2011,03,23,12,54,10.40
2011,03,23,12,55,10.40
2011,03,23,12,56,10.40
2011,03,23,12,57,10.40
2011,03,23,12,58,10.40
2011,03,23,12,59,10.50
2011,03,23,13,00,10.60
2011,03,23,13,01,10.60
2011,03,23,13,02,10.60
2011,03,23,13,03,10.60
2011,03,23,13,04,10.60
2011,03,23,13,05,10.60
2011,03,23,13,06,10.70
2011,03,23,13,07,10.70
2011,03,23,13,08,10.60
2011,03,23,13,09,10.60
2011,03,23,13,10,10.60
2011,03,23,13,11,10.70
2011,03,23,13,12,10.70
2011,03,23,13,13,10.80
2011,03,23,13,14,10.80
2011,03,23,13,15,10.90
2011,03,23,13,16,10.90
2011,03,23,13,17,10.90
2011,03,23,13,18,11.00
2011,03,23,13,19,11.10
2011,03,23,13,20,11.20
2011,03,23,13,21,11.10
2011,03,23,13,22,11.10
2011,03,23,13,23,11.10
2011,03,23,13,24,11.10
2011,03,23,13,25,11.10
2011,03,23,13,26,10.90
2011,03,23,13,27,11.00
2011,03,23,13,28,11.10
2011,03,23,13,29,11.30
2011,03,23,13,30,11.40
2011,03,23,13,31,11.40
2011,03,23,13,32,11.40
2011,03,23,13,33,11.40
2011,03,23,13,34,11.40
2011,03,23,13,35,11.40
2011,03,23,13,36,11.40
2011,03,23,13,37,11.40
2011,03,23,13,38,11.40
2011,03,23,13,39,11.30
2011,03,23,13,40,11.20
2011,03,23,13,41,11.20
2011,03,23,13,42,11.30
2011,03,23,13,43,11.30
2011,03,23,13,44,11.40
2011,03,23,13,45,11.50
2011,03,23,13,46,11.40
2011,03,23,13,47,11.40
2011,03,23,13,48,11.30
2011,03,23,13,49,11.30
2011,03,23,13,50,11.40
2011,03,23,13,51,11.40
2011,03,23,13,52,11.40
2011,03,23,13,53,11.30
2011,03,23,13,54,11.30
2011,03,23,13,55,11.20
2011,03,23,13,56,11.20
2011,03,23,13,57,11.30
2011,03,23,13,58,11.40
2011,03,23,13,59,11.40
2011,03,23,14,00,11.30
2011,03,23,14,01,11.30
2011,03,23,14,02,11.40
2011,03,23,14,03,11.50
2011,03,23,14,04,11.60
2011,03,23,14,05,11.70
2011,03,23,14,06,11.80
2011,03,23,14,07,11.80
2011,03,23,14,08,11.80
2011,03,23,14,09,11.80
2011,03,23,14,10,11.70
2011,03,23,14,11,11.60
2011,03,23,14,12,11.60
2011,03,23,14,13,11.70
2011,03,23,14,14,11.70
2011,03,23,14,15,11.80
2011,03,23,14,16,11.80
2011,03,23,14,17,11.80
2011,03,23,14,18,11.80
2011,03,23,14,19,11.80
2011,03,23,14,20,11.80
2011,03,23,14,21,11.80
2011,03,23,14,22,11.80
2011,03,23,14,23,11.80
2011,03,23,14,24,11.80
2011,03,23,14,25,11.80
2011,03,23,14,26,11.70
2011,03,23,14,27,11.60
2011,03,23,14,28,11.60
2011,03,23,14,29,11.60
2011,03,23,14,30,11.60
2011,03,23,14,31,11.60
2011,03,23,14,32,11.60
2011,03,23,14,33,11.60
2011,03,23,14,34,11.60
2011,03,23,14,35,11.60
2011,03,23,14,36,11.60
2011,03,23,14,37,11.70
2011,03,23,14,38,11.80
2011,03,23,14,39,11.70
2011,03,23,14,40,11.60
2011,03,23,14,41,11.60
2011,03,23,14,42,11.60
2011,03,23,14,43,11.60
2011,03,23,14,44,11.70
2011,03,23,14,45,11.60
2011,03,23,14,46,11.60
2011,03,23,14,47,11.60
2011,03,23,14,48,11.60
2011,03,23,14,49,11.60
2011,03,23,14,50,11.70
2011,03,23,14,51,11.80
2011,03,23,14,52,11.80
2011,03,23,14,53,11.90
2011,03,23,14,54,11.90
2011,03,23,14,55,12.00
2011,03,23,14,56,12.00
2011,03,23,14,57,12.00
2011,03,23,14,58,11.90
2011,03,23,14,59,11.90
2011,03,23,15,00,11.90
2011,03,23,15,01,12.00
2011,03,23,15,02,12.00
2011,03,23,15,03,12.10
2011,03,23,15,04,12.10
2011,03,23,15,05,12.10
2011,03,23,15,06,12.10
2011,03,23,15,07,12.10
2011,03,23,15,08,12.20
2011,03,23,15,09,12.30
2011,03,23,15,10,12.30
2011,03,23,15,11,12.30
2011,03,23,15,12,12.30
2011,03,23,15,13,12.20
2011,03,23,15,14,12.20
2011,03,23,15,15,12.30
2011,03,23,15,16,12.30
2011,03,23,15,17,12.40
2011,03,23,15,18,12.40
2011,03,23,15,19,12.50
2011,03,23,15,20,12.40
2011,03,23,15,21,12.40
2011,03,23,15,22,12.40
2011,03,23,15,23,12.40
2011,03,23,15,24,12.50
2011,03,23,15,25,12.60
2011,03,23,15,26,12.70
2011,03,23,15,27,12.70
2011,03,23,15,28,12.70
2011,03,23,15,29,12.70
2011,03,23,15,30,12.70
2011,03,23,15,31,12.70
2011,03,23,15,32,12.70
2011,03,23,15,33,12.60
2011,03,23,15,34,12.60
2011,03,23,15,35,12.50
2011,03,23,15,36,12.50
2011,03,23,15,37,12.50
2011,03,23,15,38,12.50
2011,03,23,15,39,12.50
2011,03,23,15,40,12.50
2011,03,23,15,41,12.60
2011,03,23,15,42,12.60
2011,03,23,15,43,12.60
2011,03,23,15,44,12.60
2011,03,23,15,45,12.60
2011,03,23,15,46,12.70
2011,03,23,15,47,12.70
2011,03,23,15,48,12.80
2011,03,23,15,49,12.80
2011,03,23,15,50,12.80
2011,03,23,15,51,12.80
2011,03,23,15,52,12.80
2011,03,23,15,53,12.90
2011,03,23,15,54,12.90
2011,03,23,15,55,12.90
2011,03,23,15,56,12.90
2011,03,23,15,57,12.90
2011,03,23,15,58,12.90
2011,03,23,15,59,12.90
2011,03,23,16,00,12.90
2011,03,23,16,01,12.90
2011,03,23,16,02,12.90
2011,03,23,16,03,12.90
2011,03,23,16,04,12.90
2011,03,23,16,05,12.80
2011,03,23,16,06,12.80
2011,03,23,16,07,12.80
2011,03,23,16,08,12.90
2011,03,23,16,09,12.90
2011,03,23,16,10,12.90
2011,03,23,16,11,12.90
2011,03,23,16,12,12.90
2011,03,23,16,13,12.90
2011,03,23,16,14,12.90
2011,03,23,16,15,12.90
2011,03,23,16,16,12.90
2011,03,23,16,17,12.90
2011,03,23,16,18,12.90
2011,03,23,16,19,12.90
2011,03,23,16,20,13.00
2011,03,23,16,21,13.00
2011,03,23,16,22,13.00
2011,03,23,16,23,13.00
2011,03,23,16,24,12.90
2011,03,23,16,25,12.90
2011,03,23,16,26,12.90
2011,03,23,16,27,12.80
2011,03,23,16,28,12.80
2011,03,23,16,29,12.80
2011,03,23,16,30,12.80
2011,03,23,16,31,12.80
2011,03,23,16,32,12.90
2011,03,23,16,33,13.00
2011,03,23,16,34,13.00
2011,03,23,16,35,13.10
2011,03,23,16,36,13.10
2011,03,23,16,37,13.20
2011,03,23,16,38,13.30
2011,03,23,16,39,13.30
2011,03,23,16,40,13.30
2011,03,23,16,41,13.30
2011,03,23,16,42,13.30
2011,03,23,16,43,13.30
2011,03,23,16,44,13.30
2011,03,23,16,45,13.30
2011,03,23,16,46,13.30
2011,03,23,16,47,13.30
2011,03,23,16,48,13.20
2011,03,23,16,49,13.10
2011,03,23,16,50,13.10
2011,03,23,16,51,13.10
2011,03,23,16,52,13.00
2011,03,23,16,53,13.00
2011,03,23,16,54,13.10
2011,03,23,16,55,13.10
2011,03,23,16,56,13.10
2011,03,23,16,57,13.20
2011,03,23,16,58,13.20
2011,03,23,16,59,13.20
2011,03,23,17,00,13.20
2011,03,23,17,01,13.20
2011,03,23,17,02,13.10
2011,03,23,17,03,13.10
2011,03,23,17,04,13.10
2011,03,23,17,05,13.10
2011,03,23,17,06,13.10
2011,03,23,17,07,13.10
2011,03,23,17,08,13.10
2011,03,23,17,09,13.10
2011,03,23,17,10,13.10
2011,03,23,17,11,13.10
2011,03,23,17,12,13.10
2011,03,23,17,13,13.20
2011,03,23,17,14,13.20
2011,03,23,17,15,13.30
2011,03,23,17,16,13.30
2011,03,23,17,17,13.30
2011,03,23,17,18,13.30
2011,03,23,17,19,13.30
2011,03,23,17,20,13.30
2011,03,23,17,21,13.30
2011,03,23,17,22,13.40
2011,03,23,17,23,13.40
2011,03,23,17,24,13.40
2011,03,23,17,25,13.40
2011,03,23,17,26,13.40
2011,03,23,17,27,13.40
2011,03,23,17,28,13.40
2011,03,23,17,29,13.40
2011,03,23,17,30,13.40
2011,03,23,17,31,13.40
2011,03,23,17,32,13.40
2011,03,23,17,33,13.40
2011,03,23,17,34,13.40
2011,03,23,17,35,13.40
2011,03,23,17,36,13.40
2011,03,23,17,37,13.50
2011,03,23,17,38,13.50
2011,03,23,17,39,13.40
2011,03,23,17,40,13.40
2011,03,23,17,41,13.40
2011,03,23,17,42,13.40
2011,03,23,17,43,13.40
2011,03,23,17,44,13.40
2011,03,23,17,45,13.40
2011,03,23,17,46,13.40
2011,03,23,17,47,13.40
2011,03,23,17,48,13.40
2011,03,23,17,49,13.40
2011,03,23,17,50,13.40
2011,03,23,17,51,13.40